Wind_Speed
6 7 8 10 12 14 17 18 20 22 23 24 25 27 28 28 30 31 32 32 31 32 33 33 33 32 32 32 31 30 30 29 29 27 26 25 24 24
7 8 9 10 11 13 16 17 19 20 21 23 25 27 28 29 30 32 33 33 33 33 33 34 35 35 34 34 34 33 33 32 31 30 29 28 27 26
8 8 9 10 11 13 15 17 18 19 21 22 24 26 27 28 30 32 33 34 35 35 36 35 36 36 36 36 36 36 35 34 33 33 32 31 31 30
8 8 9 10 11 13 15 16 18 19 20 21 23 24 25 27 29 31 33 34 35 35 36 36 37 38 38 38 38 38 37 37 36 36 35 34 34 33
9 10 10 11 11 12 15 17 18 19 19 20 21 23 24 25 26 28 31 33 34 35 36 37 37 38 39 39 39 39 39 39 39 38 38 37 37 36
10 10 10 11 11 11 13 15 17 18 18 19 20 21 22 23 24 26 28 30 32 33 34 35 36 38 39 40 40 40 40 40 41 41 40 40 40 39
11 11 11 10 11 11 12 13 15 16 17 18 19 21 22 23 24 25 26 27 30 32 33 34 35 37 38 40 40 40 41 41 42 42 42 41 41 41
12 11 11 11 11 11 11 12 13 14 16 17 18 20 22 22 23 24 25 27 27 29 31 33 35 36 37 38 39 40 40 42 42 43 43 43 42 42
12 12 11 11 11 11 11 12 12 14 15 16 17 18 19 20 22 23 24 25 26 28 30 30 33 34 35 36 38 38 39 40 41 43 44 43 43 43
13 12 12 11 11 11 11 11 12 12 13 15 16 17 17 18 20 21 22 24 25 27 28 30 31 32 34 35 36 37 39 40 41 42 44 44 44 44
14 13 13 12 12 11 12 12 13 13 14 15 16 18 18 18 19 21 22 23 24 25 27 29 31 32 33 34 36 37 38 39 40 41 42 43 44 45
15 14 14 13 13 13 13 13 14 14 14 15 16 17 18 19 20 21 22 23 24 25 27 28 29 31 32 33 34 35 37 38 39 40 41 42 43 44
16 16 15 15 14 14 14 15 15 15 15 16 17 17 18 19 20 21 22 23 24 25 26 27 29 31 32 33 34 35 36 38 39 39 40 41 42 42
18 17 16 16 16 15 15 16 16 16 16 17 18 18 20 21 21 22 22 23 25 26 27 28 29 30 32 33 34 35 36 37 38 40 41 41 42 43
19 18 18 17 17 17 17 17 18 18 18 18 19 20 21 21 22 23 24 25 26 27 29 29 30 31 32 33 34 35 36 37 39 40 41 41 42 43
20 19 19 19 18 18 19 19 19 19 20 20 21 22 23 23 24 24 25 26 27 28 30 31 32 33 34 35 35 36 37 38 39 40 41 41 41 42
20 20 20 20 20 20 20 21 21 22 22 22 23 23 24 25 26 26 27 27 28 29 31 32 34 34 35 36 36 37 39 40 40 40 41 42 43 44
22 22 22 22 22 22 22 22 23 24 24 25 25 26 27 27 28 29 30 30 31 32 33 34 36 37 38 38 39 40 41 41 42 42 43 42 42 43
24 24 24 24 24 24 24 24 25 25 26 27 27 28 29 30 31 31 32 33 34 34 35 36 37 38 39 39 40 42 43 43 44 44 45 45 44 44
26 26 26 26 26 26 26 27 27 28 28 29 29 30 31 32 33 34 34 35 36 37 37 38 40 40 41 41 41 42 44 44 45 45 46 46 46 45
29 29 28 28 28 28 28 29 29 29 30 30 31 32 33 34 35 35 36 36 37 38 39 40 41 42 43 43 42 42 43 45 45 45 46 47 47 47
31 31 31 31 30 30 31 31 31 31 32 32 33 34 35 35 36 37 38 38 39 40 41 42 43 43 44 44 44 43 43 45 46 47 48 48 48 47
32 33 33 32 33 33 33 33 33 33 34 34 35 36 36 37 38 38 39 40 41 42 43 43 44 45 46 46 46 46 46 46 47 47 48 49 49 49
Wind_Direction
282 270 257 245 238 234 233 232 232 233 234 233 234 235 235 236 236 235 236 237 237 236 235 235 235 236 236 237 237 236 238 239 240 241 243 244 247 249
291 280 266 255 248 243 238 237 236 238 238 238 238 238 239 239 239 239 238 239 239 238 237 237 238 238 237 238 239 239 240 241 242 243 244 245 247 250
301 287 273 263 255 249 246 244 242 243 243 243 242 241 242 242 242 241 240 240 241 240 240 240 240 240 239 239 241 241 241 242 243 244 246 247 249 250
311 298 283 271 260 252 249 248 248 248 248 246 245 245 246 246 245 244 243 243 243 242 242 242 243 243 242 242 243 244 242 243 244 246 248 250 251 252
317 306 294 283 274 262 253 250 250 251 251 251 251 250 249 249 249 247 245 243 243 244 244 244 244 245 244 243 244 244 244 244 246 247 249 251 252 252
323 315 306 295 286 274 262 257 253 252 253 255 255 253 251 251 252 251 249 246 245 245 245 245 246 246 245 244 244 245 246 245 246 248 250 252 253 254
325 318 313 305 297 285 273 265 260 257 257 258 258 257 256 254 253 252 250 248 247 245 245 246 247 247 248 246 245 246 247 247 248 249 251 251 253 254
323 317 313 307 301 291 282 273 266 263 263 263 263 261 261 258 255 253 251 250 248 248 247 248 247 247 247 246 246 247 248 249 250 250 251 252 253 254
322 316 311 308 302 295 286 279 272 269 267 267 266 265 264 262 259 256 255 253 252 250 250 251 250 248 247 247 247 249 249 250 250 251 251 252 253 254
323 319 313 306 302 298 291 286 281 279 276 273 272 270 270 269 265 261 259 257 257 256 254 254 254 252 250 249 250 252 252 252 253 253 253 254 255 255
324 318 313 307 301 297 294 290 286 281 278 277 277 273 272 272 270 267 264 263 262 262 260 258 257 256 255 254 255 255 255 255 255 256 256 256 257 257
325 320 314 308 301 298 295 291 288 286 283 282 280 277 275 273 272 272 270 267 265 265 264 263 261 261 258 258 258 257 256 255 255 257 258 259 259 259
323 318 313 308 304 300 295 291 288 285 283 284 283 279 278 278 277 275 273 270 269 268 267 266 265 264 263 260 260 260 258 256 257 258 259 260 260 260
321 317 312 306 303 300 297 294 291 287 284 285 285 282 281 281 280 278 277 275 273 271 270 270 269 268 267 264 262 262 260 259 259 260 261 262 262 262
318 316 312 306 302 299 297 294 293 289 286 286 285 284 285 284 282 280 278 278 277 275 273 272 271 270 270 268 266 265 264 263 263 263 263 263 263 263
314 314 311 307 302 298 296 294 294 292 290 288 287 286 286 286 285 282 280 280 279 278 277 276 274 273 271 270 270 268 267 266 266 266 266 265 265 266
312 311 310 307 304 300 297 294 293 292 291 290 289 288 287 286 286 285 282 281 280 278 278 277 276 275 274 273 271 271 269 269 269 269 268 267 267 266
309 309 308 306 303 301 298 296 294 293 292 290 290 289 288 287 286 285 285 284 282 280 279 278 277 276 276 275 274 272 271 269 269 269 268 268 266 266
307 307 306 305 303 300 298 297 295 294 293 292 290 290 289 289 288 287 286 285 284 283 281 280 279 277 276 276 276 275 274 272 270 269 268 268 267 265
303 304 305 303 302 301 298 297 296 295 294 293 292 291 291 290 290 289 288 287 285 284 283 282 281 280 278 277 276 275 275 274 272 270 269 268 267 266
300 301 302 302 301 300 299 297 296 295 295 294 293 292 292 292 291 290 289 288 287 285 284 284 283 281 279 278 277 275 274 273 273 272 270 269 268 267
298 298 299 299 298 298 298 297 296 295 295 295 294 294 293 292 292 291 290 290 288 287 286 285 284 282 280 279 278 277 275 274 273 272 271 270 268 266
297 297 297 297 297 297 297 296 295 295 295 295 295 295 294 294 294 293 292 291 290 288 287 286 285 284 282 281 279 278 276 275 274 272 272 271 270 268
Height
5770 5770 5771 5772 5774 5776 5779 5782 5785 5788 5791 5794 5797 5800 5804 5807 5810 5813 5817 5820 5823 5827 5830 5833 5837 5840 5843 5846 5850 5852 5855 5858 5861 5863 5865 5867 5869 5871
5769 5769 5769 5770 5771 5773 5775 5778 5780 5783 5785 5788 5791 5794 5797 5800 5803 5806 5809 5812 5816 5819 5823 5826 5830 5833 5836 5839 5843 5846 5848 5851 5854 5856 5859 5861 5863 5864
5766 5766 5766 5767 5768 5770 5771 5773 5776 5778 5780 5783 5785 5788 5790 5793 5796 5798 5801 5804 5808 5811 5814 5818 5821 5825 5828 5831 5835 5838 5841 5844 5846 5849 5851 5854 5856 5858
5764 5764 5763 5764 5764 5766 5767 5769 5771 5773 5775 5777 5779 5781 5783 5785 5788 5790 5793 5796 5799 5802 5806 5809 5813 5816 5819 5822 5826 5829 5832 5835 5838 5841 5843 5846 5848 5850
5762 5761 5761 5760 5760 5761 5762 5764 5766 5768 5769 5771 5773 5774 5776 5778 5780 5782 5785 5788 5790 5793 5796 5800 5803 5807 5810 5813 5816 5820 5823 5826 5829 5832 5834 5837 5839 5841
5760 5759 5758 5757 5757 5757 5758 5759 5761 5762 5764 5766 5767 5768 5770 5771 5773 5775 5777 5779 5782 5784 5787 5790 5794 5797 5800 5803 5807 5810 5813 5816 5819 5822 5824 5827 5829 5831
5759 5757 5756 5755 5754 5754 5754 5755 5756 5758 5759 5760 5761 5762 5764 5765 5766 5768 5769 5771 5773 5776 5779 5782 5785 5787 5790 5793 5796 5799 5803 5805 5808 5811 5813 5816 5818 5821
5757 5755 5754 5753 5752 5751 5751 5751 5752 5753 5754 5755 5756 5757 5758 5759 5760 5761 5762 5764 5766 5769 5770 5773 5775 5778 5780 5783 5786 5789 5792 5794 5797 5800 5802 5805 5807 5810
5754 5753 5752 5751 5749 5748 5748 5748 5749 5749 5750 5751 5751 5751 5752 5753 5753 5754 5755 5756 5758 5760 5762 5764 5766 5768 5771 5773 5776 5778 5781 5783 5786 5788 5791 5793 5796 5798
5752 5750 5749 5748 5747 5746 5745 5745 5745 5745 5746 5746 5746 5747 5747 5747 5748 5748 5749 5750 5751 5752 5754 5756 5758 5760 5762 5764 5766 5768 5770 5772 5775 5777 5779 5781 5784 5786
5749 5748 5746 5745 5744 5743 5742 5742 5742 5742 5742 5742 5742 5742 5741 5742 5742 5742 5743 5744 5745 5745 5746 5748 5749 5751 5752 5754 5756 5758 5760 5762 5764 5766 5768 5769 5771 5773
5747 5745 5743 5742 5741 5740 5739 5738 5738 5738 5737 5737 5737 5737 5737 5736 5736 5736 5737 5737 5737 5738 5739 5740 5741 5742 5744 5745 5746 5748 5749 5751 5753 5754 5756 5757 5758 5760
5744 5742 5740 5738 5737 5736 5735 5734 5734 5733 5733 5733 5732 5732 5731 5731 5730 5730 5730 5730 5730 5731 5731 5732 5732 5733 5734 5736 5736 5737 5738 5740 5741 5743 5744 5745 5745 5747
5740 5738 5736 5734 5733 5732 5731 5730 5729 5728 5728 5727 5727 5726 5726 5725 5724 5724 5723 5723 5723 5723 5723 5723 5723 5724 5724 5725 5726 5727 5727 5728 5729 5730 5731 5732 5733 5733
5736 5734 5732 5730 5729 5728 5726 5725 5724 5723 5722 5722 5721 5720 5719 5719 5718 5717 5716 5715 5715 5714 5714 5714 5714 5714 5714 5714 5715 5715 5716 5716 5717 5718 5719 5719 5720 5721
5731 5729 5727 5726 5724 5723 5721 5720 5719 5717 5716 5715 5714 5713 5713 5712 5711 5710 5709 5708 5707 5706 5705 5704 5704 5703 5703 5703 5703 5704 5704 5705 5705 5705 5706 5706 5707 5708
5726 5724 5722 5720 5719 5717 5715 5714 5713 5711 5710 5709 5707 5706 5705 5704 5703 5701 5700 5699 5698 5697 5696 5694 5693 5692 5692 5692 5692 5691 5691 5692 5692 5692 5692 5693 5694 5694
5721 5719 5717 5714 5712 5711 5709 5707 5706 5704 5703 5701 5700 5698 5697 5695 5694 5692 5691 5689 5688 5687 5685 5684 5682 5681 5681 5680 5679 5678 5678 5678 5678 5678 5678 5679 5680 5680
5715 5712 5710 5708 5706 5704 5702 5700 5698 5697 5695 5693 5691 5690 5688 5686 5684 5682 5680 5678 5677 5675 5673 5672 5670 5669 5668 5668 5667 5664 5663 5663 5663 5663 5663 5664 5665 5666
5707 5705 5703 5701 5698 5696 5694 5692 5690 5688 5686 5684 5682 5680 5678 5676 5674 5672 5669 5667 5665 5663 5661 5659 5657 5655 5654 5654 5654 5652 5648 5647 5647 5648 5648 5648 5649 5650
5699 5697 5695 5693 5690 5688 5686 5684 5682 5679 5677 5675 5672 5670 5668 5665 5663 5660 5657 5655 5652 5650 5648 5646 5643 5640 5638 5638 5638 5637 5635 5632 5631 5631 5631 5632 5633 5634
5691 5689 5686 5684 5682 5679 5677 5675 5672 5670 5667 5665 5662 5659 5656 5654 5651 5648 5645 5642 5639 5636 5634 5631 5628 5625 5623 5622 5621 5621 5620 5618 5616 5615 5614 5614 5615 5617
5681 5679 5677 5675 5672 5670 5667 5665 5662 5659 5657 5654 5651 5648 5645 5642 5639 5636 5632 5629 5625 5622 5619 5616 5613 5610 5607 5605 5604 5604 5603 5601 5600 5599 5598 5597 5597 5598